User: anonymous   Login
Location: Unspecified
(0.0000°N, 0.0000°E)
Time: 02:06:05
(UTC+00:00)
Language:

TIANWANG 1A (TW-1A) - Orbit

View from above orbital plane
View from above orbital plane
View from above satellite
View from above satellite

Ground track
Ground track

The orbit data is extracted from the following two-line orbital elements,

1 40928U 15051D   18170.34582266 +.00001808 +00000-0 +49271-4 0  9992
2 40928 097.1845 204.2927 0010620 321.6215 094.7563 15.38725461153111
Epoch (UTC): 19 June 2018 08:17:59
Eccentricity: 0.0010620
inclination: 97.1845°
perigee height: 442 km
apogee height: 457 km
right ascension of ascending node: 204.2927°
argument of perigee: 321.6215°
revolutions per day: 15.38725461
mean anomaly at epoch: 94.7563°
orbit number at epoch: 15311

The dashed part of the orbit path shows where the satellite is in the earth's shadow,  

DLR